• In Uzbekistan
  • List of Countries
  • For 7 days
  • Water Temperature
  • Satellite Maps
  • Weather Map
  • Weather Widgets
  • user-avatar
    Login

    Hourly Weather Shusha

    Today, 25 March, Saturday

    Time Temperature Precipitation Wind Pressure Humidity
    00:00 -3°C° 0 mm 0 mps 661 mmHg 95%
    01:00 -3°C° 0 mm 0 mps 661 mmHg 95%
    02:00 -3°C° 0 mm 0 mps 660 mmHg 94%
    03:00 -4°C° 0 mm 0 mps 660 mmHg 94%
    04:00 -4°C° 0 mm 0 mps 659 mmHg 94%
    05:00 -4°C° 0 mm 0 mps 659 mmHg 95%
    06:00 -4°C° 0 mm 0 mps 659 mmHg 95%
    07:00 0°C° 0 mm 1 mps 660 mmHg 85%
    08:00 +2°C° 0 mm 1 mps 660 mmHg 74%
    09:00 +5°C° 0 mm 1 mps 661 mmHg 61%
    10:00 +6°C° 0 mm 1 mps 661 mmHg 58%
    11:00 +7°C° 0 mm 2 mps 661 mmHg 55%
    12:00 +8°C° 0 mm 2 mps 661 mmHg 51%
    13:00 +8°C° 0 mm 2 mps 660 mmHg 52%
    14:00 +8°C° 0 mm 2 mps 659 mmHg 52%
    15:00 +8°C° 0 mm 2 mps 659 mmHg 52%
    16:00 +7°C° 0 mm 2 mps 658 mmHg 60%
    17:00 +6°C° 0 mm 1 mps 657 mmHg 69%
    18:00 +4°C° 0 mm 1 mps 657 mmHg 77%
    19:00 +3°C° 0 mm 1 mps 657 mmHg 80%
    20:00 +2°C° 0 mm 1 mps 657 mmHg 83%
    21:00 +1°C° 0 mm 1 mps 657 mmHg 85%
    22:00 +1°C° 0 mm 1 mps 657 mmHg 85%
    23:00 +1°C° 0 mm 1 mps 657 mmHg 84%

    Tomorrow, 26 March, Sunday

    Time Temperature Precipitation Wind Pressure Humidity
    00:00 +1°C° 0 mm 1 mps 657 mmHg 83%
    01:00 +1°C° 0 mm 1 mps 657 mmHg 83%
    02:00 +1°C° 0 mm 1 mps 656 mmHg 82%
    03:00 +1°C° 0 mm 1 mps 656 mmHg 81%
    04:00 0°C° 0 mm 1 mps 656 mmHg 79%
    05:00 0°C° 0 mm 1 mps 656 mmHg 77%
    06:00 0°C° 0 mm 1 mps 656 mmHg 75%
    07:00 +3°C° 0 mm 1 mps 657 mmHg 66%
    08:00 +6°C° 0 mm 1 mps 658 mmHg 57%
    09:00 +8°C° 0 mm 1 mps 658 mmHg 48%
    10:00 +10°C° 0 mm 1 mps 658 mmHg 45%
    11:00 +10°C° 0 mm 2 mps 658 mmHg 42%
    12:00 +12°C° 0 mm 2 mps 658 mmHg 40%
    13:00 +12°C° 0 mm 2 mps 658 mmHg 40%
    14:00 +13°C° 0 mm 2 mps 658 mmHg 40%
    15:00 +13°C° 0 mm 2 mps 658 mmHg 40%
    16:00 +11°C° 0 mm 1 mps 657 mmHg 48%
    17:00 +9°C° 0 mm 1 mps 657 mmHg 57%
    18:00 +7°C° 0 mm 1 mps 656 mmHg 65%
    19:00 +6°C° 0 mm 1 mps 657 mmHg 67%
    20:00 +5°C° 0 mm 1 mps 657 mmHg 68%
    21:00 +4°C° 0 mm 1 mps 657 mmHg 69%
    22:00 +3°C° 0 mm 2 mps 657 mmHg 67%
    23:00 +3°C° 0 mm 2 mps 657 mmHg 65%

    Day after tomorrow, 27 March, Monday

    Time Temperature Precipitation Wind Pressure Humidity
    00:00 +3°C° 0 mm 2 mps 657 mmHg 63%
    01:00 +3°C° 0 mm 2 mps 657 mmHg 62%
    02:00 +3°C° 0 mm 2 mps 657 mmHg 62%
    03:00 +2°C° 0 mm 2 mps 657 mmHg 61%
    04:00 +2°C° 0 mm 2 mps 657 mmHg 60%
    05:00 +2°C° 0 mm 2 mps 657 mmHg 60%
    06:00 +2°C° 0 mm 2 mps 657 mmHg 60%
    07:00 +5°C° 0 mm 2 mps 657 mmHg 53%
    08:00 +8°C° 0 mm 2 mps 658 mmHg 45%
    09:00 +12°C° 0 mm 1 mps 659 mmHg 38%
    10:00 +13°C° 0 mm 2 mps 659 mmHg 36%
    11:00 +14°C° 0 mm 2 mps 659 mmHg 34%
    12:00 +15°C° 0 mm 2 mps 659 mmHg 32%
    13:00 +15°C° 0 mm 2 mps 658 mmHg 32%
    14:00 +15°C° 0 mm 2 mps 658 mmHg 32%
    15:00 +16°C° 0 mm 2 mps 657 mmHg 33%
    16:00 +13°C° 0 mm 2 mps 657 mmHg 40%
    17:00 +10°C° 0 mm 2 mps 656 mmHg 47%
    18:00 +9°C° 0 mm 1 mps 656 mmHg 55%
    19:00 +8°C° 0 mm 1 mps 656 mmHg 56%
    20:00 +6°C° 0 mm 2 mps 656 mmHg 57%
    21:00 +6°C° 0 mm 2 mps 656 mmHg 59%
    22:00 +5°C° 0 mm 2 mps 656 mmHg 59%
    23:00 +5°C° 0 mm 2 mps 656 mmHg 59%

    28 March, Tuesday

    Time Temperature Precipitation Wind Pressure Humidity
    00:00 +5°C° 0 mm 2 mps 656 mmHg 59%
    01:00 +5°C° 0 mm 2 mps 656 mmHg 60%
    02:00 +4°C° 0 mm 2 mps 656 mmHg 61%
    03:00 +4°C° 0 mm 2 mps 656 mmHg 62%
    04:00 +4°C° 0 mm 2 mps 656 mmHg 63%
    05:00 +4°C° 0 mm 2 mps 656 mmHg 64%
    06:00 +4°C° 0 mm 1 mps 656 mmHg 65%
    07:00 +6°C° 0 mm 2 mps 656 mmHg 57%
    08:00 +8°C° 0 mm 2 mps 657 mmHg 49%
    09:00 +12°C° 0 mm 2 mps 658 mmHg 41%
    10:00 +13°C° 0 mm 2 mps 658 mmHg 40%
    11:00 +12°C° 0 mm 3 mps 658 mmHg 40%
    12:00 +13°C° 0 mm 3 mps 658 mmHg 39%
    13:00 +13°C° 0.1 mm 3 mps 658 mmHg 42%
    14:00 +12°C° 0.1 mm 3 mps 658 mmHg 45%
    15:00 +12°C° 0.1 mm 3 mps 658 mmHg 47%
    16:00 +10°C° 0.1 mm 3 mps 658 mmHg 56%
    17:00 +9°C° 0.1 mm 2 mps 658 mmHg 65%
    18:00 +7°C° 0.1 mm 2 mps 658 mmHg 73%
    19:00 +7°C° 0 mm 1 mps 658 mmHg 77%
    20:00 +6°C° 0 mm 1 mps 658 mmHg 81%
    21:00 +5°C° 0 mm 1 mps 658 mmHg 85%
    22:00 +5°C° 0 mm 1 mps 658 mmHg 85%
    23:00 +4°C° 0 mm 1 mps 658 mmHg 85%

    29 March, Wednesday

    Time Temperature Precipitation Wind Pressure Humidity
    00:00 +4°C° 0 mm 1 mps 658 mmHg 85%
    01:00 +3°C° 0 mm 1 mps 658 mmHg 85%
    02:00 +3°C° 0 mm 1 mps 657 mmHg 86%
    03:00 +3°C° 0 mm 1 mps 657 mmHg 86%
    04:00 +2°C° 0 mm 1 mps 657 mmHg 86%
    05:00 +2°C° 0 mm 1 mps 657 mmHg 86%
    06:00 +2°C° 0 mm 1 mps 657 mmHg 86%
    07:00 +5°C° 0 mm 1 mps 658 mmHg 74%
    08:00 +7°C° 0 mm 1 mps 658 mmHg 63%
    09:00 +9°C° 0 mm 2 mps 659 mmHg 52%
    10:00 +10°C° 0 mm 2 mps 659 mmHg 48%
    11:00 +12°C° 0 mm 2 mps 659 mmHg 45%
    12:00 +13°C° 0 mm 3 mps 659 mmHg 41%
    13:00 +13°C° 0 mm 3 mps 659 mmHg 41%
    14:00 +13°C° 0 mm 3 mps 659 mmHg 41%
    15:00 +13°C° 0 mm 3 mps 659 mmHg 41%
    16:00 +12°C° 0 mm 2 mps 659 mmHg 49%
    17:00 +9°C° 0 mm 2 mps 658 mmHg 57%
    18:00 +8°C° 0 mm 1 mps 658 mmHg 65%
    19:00 +7°C° 0 mm 1 mps 659 mmHg 70%
    20:00 +6°C° 0 mm 1 mps 659 mmHg 76%
    21:00 +4°C° 0 mm 2 mps 660 mmHg 82%
    22:00 +3°C° 0 mm 2 mps 660 mmHg 84%
    23:00 +3°C° 0 mm 2 mps 661 mmHg 85%

    30 March, Thursday

    Time Temperature Precipitation Wind Pressure Humidity
    00:00 +2°C° 0 mm 2 mps 661 mmHg 87%
    01:00 +2°C° 0 mm 2 mps 661 mmHg 87%
    02:00 +2°C° 0 mm 2 mps 661 mmHg 87%
    03:00 +2°C° 0 mm 2 mps 661 mmHg 88%
    04:00 +1°C° 0 mm 2 mps 661 mmHg 89%
    05:00 +2°C° 0 mm 1 mps 661 mmHg 90%
    06:00 +2°C° 0 mm 1 mps 661 mmHg 91%
    07:00 +2°C° 0 mm 2 mps 662 mmHg 84%
    08:00 +3°C° 0 mm 2 mps 662 mmHg 77%
    09:00 +5°C° 0 mm 2 mps 662 mmHg 71%
    10:00 +6°C° 0 mm 2 mps 662 mmHg 67%
    11:00 +7°C° 0 mm 2 mps 662 mmHg 64%
    12:00 +7°C° 0 mm 2 mps 661 mmHg 61%
    13:00 +8°C° 0 mm 2 mps 661 mmHg 60%
    14:00 +8°C° 0 mm 2 mps 660 mmHg 59%
    15:00 +9°C° 0 mm 2 mps 660 mmHg 58%
    16:00 +7°C° 0 mm 2 mps 659 mmHg 65%
    17:00 +7°C° 0 mm 1 mps 659 mmHg 72%
    18:00 +6°C° 0 mm 1 mps 658 mmHg 79%
    19:00 +5°C° 0 mm 1 mps 658 mmHg 81%
    20:00 +4°C° 0 mm 1 mps 658 mmHg 84%
    21:00 +3°C° 0 mm 1 mps 658 mmHg 86%
    22:00 +3°C° 0 mm 1 mps 658 mmHg 85%
    23:00 +3°C° 0 mm 1 mps 657 mmHg 83%
    Show more